SCP
2 2 2 2 2 2 2 2 2 2 1 1 1 1 1 1 1 1 1 1 1 1 1 1 1 1 1 1 1 1 1 1 1 2 2 2 1 1 1 1 0 0 0
1 1 2 2 3 3 2 2 2 2 2 1 1 1 1 1 1 1 0 1 1 1 1 1 1 1 1 1 1 1 1 1 1 2 2 1 1 1 1 1 1 0 0
1 2 2 2 3 3 3 2 2 2 2 2 1 1 1 1 1 1 0 0 0 1 1 1 1 1 1 1 1 1 1 1 1 1 1 1 1 1 1 1 1 1 1
2 2 2 2 2 2 3 2 2 2 2 1 1 1 1 1 1 1 0 0 0 0 1 1 1 1 1 1 1 1 1 1 1 1 1 1 1 1 1 1 1 1 1
3 2 2 2 2 2 2 2 2 2 2 1 1 1 1 1 0 0 0 0 0 0 0 0 1 1 1 1 1 1 1 1 1 1 1 1 1 1 1 1 1 1 1
3 3 2 3 3 3 3 2 2 2 2 2 1 1 1 1 1 1 0 0 0 0 0 0 1 1 1 1 1 1 1 1 1 1 1 1 1 1 1 1 1 1 1
4 3 3 2 3 3 3 3 3 2 2 2 2 2 1 1 1 1 1 1 0 0 0 0 0 0 0 1 1 1 1 1 1 1 1 1 1 1 1 1 1 1 1
3 3 2 2 2 2 2 3 2 2 2 2 2 2 2 1 1 1 1 1 1 1 1 0 0 0 0 0 1 1 1 1 1 2 2 1 1 1 1 1 1 1 1
2 2 2 2 2 2 2 2 2 2 2 2 2 2 1 1 1 1 1 1 1 1 1 1 0 0 0 0 0 0 1 1 1 1 2 1 1 1 1 1 1 1 1
2 2 3 2 2 2 1 1 1 1 1 1 1 1 1 1 1 1 1 1 1 1 1 1 1 1 1 1 0 0 0 0 1 1 1 1 1 1 1 1 1 1 1
2 2 2 2 2 1 1 1 1 1 1 1 1 1 1 0 0 1 1 0 1 1 1 1 1 1 1 1 1 1 0 0 1 1 1 1 1 1 1 1 1 1 1
2 2 2 2 2 2 1 1 1 1 1 1 1 1 1 1 0 1 1 0 0 0 1 1 1 1 1 1 1 1 1 0 0 1 1 1 2 2 1 1 1 1 1
3 3 3 3 2 2 1 1 1 1 1 1 1 1 1 1 1 1 1 1 1 0 0 1 1 1 1 1 1 1 1 1 1 1 1 1 1 2 2 1 1 1 1
3 3 3 3 3 3 2 2 1 1 1 1 1 1 1 1 1 1 1 1 1 1 1 1 1 1 1 1 1 1 1 1 1 0 0 1 1 1 1 1 1 1 1
4 4 4 3 3 3 3 2 2 1 1 1 1 1 1 1 1 1 1 1 1 1 1 1 0 0 1 1 1 1 1 1 1 0 0 0 0 1 1 1 1 1 1
4 4 4 4 4 4 4 3 2 1 1 1 1 1 1 1 1 1 1 2 2 2 1 1 0 0 1 1 1 1 1 1 1 0 0 0 0 0 0 0 0 0 0
5 5 4 4 4 4 4 3 3 2 1 1 1 1 2 2 2 2 2 2 3 3 2 1 0 0 0 1 1 1 1 1 1 1 0 0 0 0 0 0 0 0 0
6 6 5 5 6 5 4 3 3 3 2 2 2 2 2 3 3 3 3 3 3 3 2 1 1 0 0 1 1 0 0 1 1 1 0 0 0 0 0 0 0 0 0
7 6 6 6 7 6 4 3 3 3 4 3 3 3 3 3 3 3 3 3 3 2 2 1 1 0 0 1 1 1 0 0 1 1 0 0 0 0 0 0 0 0 0
6 6 6 7 7 5 4 3 3 3 4 4 4 4 3 3 3 3 3 3 3 2 2 1 1 0 1 1 1 1 1 1 0 0 0 0 0 0 0 0 0 0 0
4 5 6 7 6 5 4 4 4 3 3 3 4 4 4 3 3 2 3 3 2 2 2 1 1 0 1 1 1 1 1 1 0 0 0 0 0 0 0 0 0 0 0
3 4 6 6 5 4 4 4 4 4 3 3 4 5 5 4 3 2 2 2 2 2 1 1 1 1 1 1 1 1 1 1 1 0 0 0 0 0 0 0 0 0 0
3 4 6 6 4 3 2 3 3 3 3 3 4 5 4 4 3 3 2 1 1 1 1 1 1 1 1 1 1 1 1 1 1 1 0 0 0 0 0 0 0 0 0
3 5 6 5 3 1 1 2 2 2 2 2 3 4 3 4 3 3 1 1 0 0 0 0 1 1 0 0 0 1 1 1 1 1 0 0 0 0 0 0 0 0 0
4 5 5 4 2 1 1 1 2 2 2 2 3 3 3 4 3 2 1 1 0 0 0 0 0 0 0 0 0 1 1 1 1 1 1 0 0 0 0 0 0 0 0
5 5 4 4 3 2 1 1 1 2 3 3 3 3 3 4 3 2 1 1 0 0 0 0 0 0 0 0 0 1 1 1 1 1 1 0 0 0 0 0 0 0 0
Wind_Speed
2 2 1 1 2 2 2 2 1 1 2 2 3 3 3 3 3 2 2 5 7 7 8 9 10 10 9 9 8 9 9 11 11 11 10 8 8 7 8 8 8 7 7
3 3 2 2 2 2 2 2 2 2 1 1 2 3 3 3 3 3 2 3 6 7 8 9 9 9 9 9 8 8 9 9 10 10 9 9 8 8 8 8 8 7 7
3 3 2 2 2 1 2 2 1 1 1 1 1 2 2 3 3 4 3 2 3 6 8 8 9 9 9 9 9 9 8 9 9 9 9 9 9 9 8 9 8 8 7
3 3 2 2 1 2 2 2 2 1 1 1 1 1 1 2 3 4 3 3 3 3 5 8 9 9 9 10 10 10 9 9 10 10 10 10 9 9 9 9 8 8 8
3 3 2 2 2 2 1 2 2 2 2 1 1 1 1 2 3 4 4 4 4 3 3 5 9 9 10 11 11 11 10 10 10 10 11 10 10 10 10 9 9 9 9
3 2 2 1 2 2 1 1 1 1 2 2 2 1 1 2 2 3 4 4 3 4 4 4 4 5 9 10 10 11 11 11 11 11 11 11 11 10 10 10 9 9 9
3 3 2 1 2 2 2 1 1 1 1 1 1 1 2 2 2 2 2 2 4 4 4 5 3 3 4 8 9 11 11 12 12 12 13 12 11 11 11 11 10 10 10
3 3 3 2 2 1 1 1 1 1 1 1 2 1 1 3 2 2 1 2 3 3 4 5 4 4 3 2 5 10 11 11 12 12 12 12 12 12 12 12 11 11 10
3 2 2 2 2 2 2 2 2 2 1 1 1 3 2 2 2 2 1 2 2 2 3 3 5 5 5 3 3 7 9 10 11 12 11 11 12 13 13 13 12 12 11
2 2 2 2 2 2 2 2 2 2 2 1 1 1 2 2 2 1 2 2 1 2 3 3 4 4 4 4 5 7 8 9 10 10 10 10 10 11 12 12 12 13 12
1 2 2 2 2 2 2 2 2 2 2 2 1 1 0 0 1 2 1 2 2 2 2 2 3 3 4 4 4 6 8 9 9 9 9 9 10 10 11 10 11 11 11
1 1 2 2 2 2 2 2 2 2 1 2 2 1 2 1 1 2 2 2 1 2 1 1 2 3 3 3 5 7 8 8 9 9 9 9 9 10 10 11 11 11 11
1 2 2 2 2 2 1 1 1 1 1 2 2 1 1 2 2 2 2 1 1 2 1 1 2 2 3 3 3 7 7 7 8 8 8 9 9 9 10 10 10 10 10
2 2 2 1 1 2 1 1 1 1 1 1 1 1 1 1 1 2 2 2 0 1 1 2 1 2 2 2 3 6 4 7 8 8 8 8 8 9 9 9 9 9 9
2 2 2 2 2 2 2 1 1 1 1 1 1 1 1 1 1 1 1 2 3 1 2 2 1 2 1 1 3 3 3 6 7 7 8 9 9 9 9 8 8 8 8
2 2 2 2 2 1 1 2 1 1 1 1 1 1 0 0 0 1 1 1 2 3 2 2 2 2 1 1 2 2 3 6 7 8 8 8 9 9 9 9 9 8 8
3 3 2 2 2 2 2 2 2 2 2 1 1 2 1 1 0 0 1 1 1 2 2 2 2 1 1 1 1 1 2 3 4 8 9 9 9 9 9 10 9 9 9
2 3 2 2 2 2 2 2 2 2 2 2 2 2 1 1 1 0 1 0 0 1 2 2 2 1 1 2 1 2 2 2 3 6 8 9 9 10 10 10 10 10 10
2 2 3 3 2 2 2 2 2 2 2 3 3 3 2 2 1 1 1 1 1 0 1 1 2 1 1 1 0 1 2 2 3 4 6 7 8 9 9 10 10 10 10
3 2 3 3 2 2 2 2 2 1 1 2 2 2 2 2 3 2 1 1 1 0 0 0 1 1 1 1 0 1 2 2 2 2 2 3 5 7 8 9 10 10 10
3 3 2 2 2 1 2 2 2 2 1 1 1 2 3 3 3 3 2 2 1 1 1 0 1 1 1 1 1 1 1 2 2 1 1 2 2 3 4 7 9 10 10
2 2 3 2 2 2 2 3 2 2 2 2 2 2 2 3 3 4 3 3 4 3 3 2 1 2 2 2 1 1 1 1 3 2 1 3 2 3 4 4 7 9 10
3 3 3 3 3 3 4 3 3 2 2 3 3 2 2 2 2 2 2 2 2 3 5 4 3 4 3 3 2 2 2 2 3 3 1 3 2 3 4 4 8 9 9
4 4 3 3 3 3 3 3 3 2 1 1 2 2 2 2 3 3 2 2 2 2 3 4 4 5 5 4 4 4 3 2 3 3 2 2 2 3 4 3 7 9 9
4 3 3 3 3 2 2 3 3 1 1 1 1 2 3 3 3 4 3 2 1 2 2 2 4 4 5 4 3 1 1 0 2 3 1 2 2 2 3 3 4 6 7
4 4 3 3 3 2 2 3 4 2 1 1 1 1 2 3 3 4 3 3 2 3 2 2 2 2 2 2 2 3 3 2 2 3 2 1 2 1 3 3 2 2 2
Wind_Direction
155 157 164 165 174 174 170 170 172 177 172 172 171 175 184 188 179 182 200 193 192 193 192 187 188 188 185 184 180 173 174 172 171 171 172 171 170 171 174 174 173 173 174
156 151 151 159 178 183 177 167 172 175 179 166 167 185 195 195 186 189 199 203 199 199 198 194 191 188 187 181 176 171 171 172 175 176 178 179 179 179 181 182 182 179 179
155 148 149 157 176 170 145 135 142 140 163 163 182 203 200 198 192 197 195 201 204 201 202 201 196 194 193 191 186 184 184 180 180 182 185 187 188 188 188 188 186 186 187
154 145 151 166 160 140 136 145 153 141 170 180 205 226 210 203 207 207 200 197 199 205 208 205 203 204 201 200 198 194 194 192 191 190 193 194 195 194 194 192 191 191 190
150 144 155 165 147 137 151 171 163 164 174 195 214 229 223 209 215 208 201 198 197 198 201 205 208 211 211 209 207 204 203 199 197 197 200 200 200 198 198 196 196 198 198
147 143 148 150 139 132 143 155 170 171 181 190 210 240 248 229 214 215 209 201 197 200 202 207 207 215 217 215 212 211 208 206 206 206 207 208 206 202 201 201 203 206 206
151 148 150 143 139 148 171 172 158 157 177 146 105 342 320 287 242 230 219 199 204 204 199 204 200 205 219 218 216 212 212 211 211 211 214 213 207 205 205 205 210 213 214
162 158 149 158 159 150 158 166 146 138 185 162 143 121 337 336 322 256 227 212 212 202 206 205 197 202 204 203 217 214 213 213 214 215 218 216 211 208 207 209 213 217 217
164 160 159 163 171 169 187 197 176 156 182 227 164 152 161 225 294 319 271 238 212 203 214 203 197 202 203 201 211 219 214 213 217 220 220 217 215 212 213 217 218 219 220
166 164 158 161 171 177 195 212 188 174 158 199 256 227 182 164 158 312 325 306 251 218 216 210 202 202 205 204 209 212 214 215 219 221 220 217 215 213 217 218 220 222 222
176 169 163 161 172 184 191 191 175 176 174 179 184 192 180 49 140 151 274 311 319 276 230 215 202 204 208 207 206 208 209 209 212 215 212 212 215 215 216 218 220 220 219
195 180 169 173 180 178 183 184 174 172 184 179 172 157 155 159 175 166 199 246 270 281 265 229 213 211 209 205 211 203 199 200 201 205 208 213 218 218 220 223 223 221 222
205 211 182 183 185 183 174 165 156 166 179 172 179 183 181 185 174 164 157 210 257 293 313 276 234 212 208 202 211 199 197 195 197 201 207 212 215 218 219 222 223 224 226
201 195 177 177 180 178 171 159 165 197 178 183 194 187 186 204 174 167 169 164 158 326 319 282 281 228 220 204 208 194 198 196 198 202 207 213 217 219 219 220 223 225 228
190 183 180 178 177 175 175 165 185 208 177 188 195 180 189 220 172 166 158 160 158 188 269 275 277 265 241 215 202 190 198 206 204 207 209 214 218 219 221 222 225 227 228
183 176 184 186 185 188 179 169 199 203 167 195 182 161 188 213 97 104 130 142 157 170 222 262 259 269 250 221 198 199 211 213 215 216 218 220 223 223 224 225 225 226 228
182 181 186 185 188 198 193 180 190 183 182 202 189 166 190 163 137 107 94 91 120 159 200 271 276 293 250 222 228 231 225 219 226 225 225 226 228 230 230 230 229 229 229
192 191 183 182 192 196 190 187 201 191 185 192 195 175 195 159 154 196 108 100 206 175 174 243 285 296 267 235 221 236 248 235 236 235 230 229 230 231 234 234 233 232 231
199 193 177 180 188 189 193 204 198 194 196 201 195 186 196 160 178 209 174 195 236 213 162 190 260 277 291 281 311 280 267 269 256 248 235 234 235 237 237 236 235 233 232
194 197 189 188 192 195 203 209 188 172 178 193 194 186 186 180 193 200 199 209 190 143 127 156 269 285 285 302 98 271 293 291 280 277 265 254 244 244 244 239 236 234 232
196 197 177 185 190 185 200 190 182 173 175 202 216 198 195 193 199 206 205 202 184 177 202 202 263 290 288 296 251 252 268 289 283 266 279 274 257 253 253 247 241 238 236
198 181 169 175 188 211 200 186 177 184 189 195 216 231 222 218 220 221 219 207 193 191 203 205 221 235 257 249 246 245 251 308 293 280 254 278 247 253 254 242 239 234 233
191 189 187 180 196 222 211 204 196 182 193 203 206 220 237 237 226 220 226 233 234 216 199 195 210 227 230 230 215 237 234 230 244 259 214 272 263 261 258 256 245 237 236
190 192 194 193 198 229 218 205 191 162 185 214 217 214 217 239 238 214 207 222 248 247 221 210 214 229 235 231 213 212 217 244 274 274 198 247 271 267 276 266 252 243 243
190 191 184 186 187 223 221 192 161 138 159 225 227 208 206 221 228 196 178 196 261 286 259 223 229 240 250 250 215 162 193 189 286 285 241 209 267 287 290 283 273 254 249
186 178 174 180 183 204 211 176 159 145 155 224 272 238 213 200 193 172 177 186 223 258 285 319 313 312 288 277 226 193 192 195 235 268 260 203 249 293 306 287 281 286 270